ASTRA 1M

Last updated on Thu Oct 30 2025 00:02:48 GMT+0000 (Coordinated Universal Time)

1 33436U 08057A 25302.26083336 .00000130 00000+0 00000+0 0 9994 2 33436 0.0578 70.4694 0004453 120.2689 320.2255 1.00270912 43429
UTC large
Height (km)
Speed (km/s)
/
Latitude / Longitude
Inclination (degrees)
Orbital Period (minutes)
Azimuth
Elevation
Range (km)
Doppler Factor

Next 0 passes for location: London (51.5072 / 0.1276)

Sorry there are no passes over London.